Welcome to the New NWS' Forecast!
Most changes are behind the scenes, but click here for differences you might notice.

Regional Weather Roundup (RWR)

Issued by Gray - Portland, ME (GYX)

                            
475 
ASUS41 KGYX 220710
RWRGYX
WEATHER ROUNDUP FOR MAINE AND NEW HAMPSHIRE
NATIONAL WEATHER SERVICE GRAY ME
300 AM EDT SAT SEP 22 2018

MEZ002-005-006-010-012-015-018-020-021-024-026-027-029-220800-
MAINE
  
CITY           SKY/WX    TMP DP  RH WIND       PRES   REMARKS
PORTLAND       CLOUDY    68  64  87 SW8G23    29.76F                  
SANFORD        CLOUDY    68  64  87 SW7       29.79F                  
BAR HARBOR     LGT RAIN  63  61  93 SW21G28   29.75F                  
WISCASSET      CLOUDY    65  63  93 SW13G20   29.77F                  
ROCKLAND       LGT RAIN  63  62  97 SW15G26   29.76F                  
FRYEBURG       MOCLDY    67  64  90 VRB5      29.73F                  
AUGUSTA        CLOUDY    63  61  93 SW8       29.73F                  
WATERVILLE     LGT RAIN  63  61  93 SW10G16   29.70F                  
BANGOR         LGT RAIN  64  62  93 S15G24    29.70F                  
GREENVILLE       N/A     58  58 100 S6        29.66S                  
MILLINOCKET    CLOUDY    61  58  90 VRB7      29.64F                  
HOULTON        CLOUDY    60  60 100 SW14G26   29.61F                  
PRESQUE ISLE   MOCLDY    59  57  93 S13       29.54F                  
FRENCHVILLE    CLOUDY    61  57  87 S12       29.45S                  
CARIBOU        FAIR      60  56  86 S12       29.52F                  
$$

NHZ002-005-008-009-011-012-014-220800-
NEW HAMPSHIRE
  
CITY           SKY/WX    TMP DP  RH WIND       PRES   REMARKS
ROCHESTER      CLOUDY    69  65  86 VRB6      29.78F                  
NASHUA         LGT RAIN  69  67  93 VRB5      29.83F                  
MANCHESTER     CLOUDY    71  65  81 SW12      29.80F                  
CONCORD        CLOUDY    70  65  84 SW7       29.80F                  
LACONIA        CLOUDY    69  65  86 SW14      29.78R                  
PLYMOUTH       MOCLDY    66  63  91 CALM      29.78S                  
BERLIN         MOCLDY    67  63  87 S3        29.72F                  
WHITEFIELD     FAIR      67  64  90 W6        29.75F                  
JAFFREY        LGT RAIN  67  66  97 SW12G23   29.86F                  
KEENE          MIX PCPN N/A N/A N/A SW14      29.85R                  
LEBANON        FAIR      68  63  84 S9        29.79F                  
MT WASHINGTON  FOG       50  50 100 W71G82      N/A  VSB 0            
$$

VTZ005-007-008-220800-
VERMONT
  
CITY           SKY/WX    TMP DP  RH WIND       PRES   REMARKS
ST JOHNSBURY     N/A     64  64 100 MISG      29.74R                  
MONTPELIER     LGT RAIN  68  62  81 W21G31    29.82R                  
BURLINGTON     FAIR      68  54  60 NW13G24   29.82R                  
$$

MAZ007-012-024-CTZ003-RIZ002-NYZ038-NYZ072-220800-
SOUTHERN NEW ENGLAND AND NY
  
CITY           SKY/WX    TMP DP  RH WIND       PRES   REMARKS
BOSTON         CLOUDY    73  64  73 SW26G36   29.84F                  
WORCESTER      RAIN      65  65 100 SW15      29.89F                  
NANTUCKET      FAIR      68  65  90 SW20G29   29.96F                  
PROVIDENCE     CLOUDY    71  66  84 SW14      29.91F                  
HARTFORD       LGT RAIN  70  66  87 SW10      29.89F                  
ALBANY         CLOUDY    71  62  73 W24G36    29.90R                  
NEW YORK CITY  MOCLDY    75  66  73 SW14G28   29.93S                  
$$

ANZ081-ANZ082-ANZ150-NHZ014-MEZ023>029-220800-
COASTAL MARINE OBSERVATIONS
  
STATION/POSITION TIME  TEMP    WIND        PRES    WAVE
                       AIR SEA DIR/SP/G            HT/PER
                 (UTC) (F)     (DEG/KT/KT) (MB)    (FT/S)
MOUNT DESERT ROC 0700   63     190/ 33/ 36 1008.1F
MATINICUS ROCK   0700   63     210/ 34/ 36 1008.1F
ISLE OF SHOALS   0700   69     220/ 26/ 28 1008.0F
JEFFREYS LEDGE   0636      63                N/A     7/10
$$

.............KEY..............
   WCI - WIND CHILL
   TC  - TEMPERATURE IN CELSIUS
   VSB - VISIBILITY IN MILES
   HX  - HEAT INDEX
   FAIR- INDICATES FEW OR NO CLOUDS BELOW 12,000 FT, WITH NO 
         SIGNIFICANT WEATHER AND/OR OBSTRUCTIONS TO VISIBILITY.


  


000
ASUS41 KGYX 220710
RWRGYX
WEATHER ROUNDUP FOR MAINE AND NEW HAMPSHIRE
NATIONAL WEATHER SERVICE GRAY ME
300 AM EDT SAT SEP 22 2018

MEZ002-005-006-010-012-015-018-020-021-024-026-027-029-220800-
MAINE
  
CITY           SKY/WX    TMP DP  RH WIND       PRES   REMARKS
PORTLAND       CLOUDY    68  64  87 SW8G23    29.76F                  
SANFORD        CLOUDY    68  64  87 SW7       29.79F                  
BAR HARBOR     LGT RAIN  63  61  93 SW21G28   29.75F                  
WISCASSET      CLOUDY    65  63  93 SW13G20   29.77F                  
ROCKLAND       LGT RAIN  63  62  97 SW15G26   29.76F                  
FRYEBURG       MOCLDY    67  64  90 VRB5      29.73F                  
AUGUSTA        CLOUDY    63  61  93 SW8       29.73F                  
WATERVILLE     LGT RAIN  63  61  93 SW10G16   29.70F                  
BANGOR         LGT RAIN  64  62  93 S15G24    29.70F                  
GREENVILLE       N/A     58  58 100 S6        29.66S                  
MILLINOCKET    CLOUDY    61  58  90 VRB7      29.64F                  
HOULTON        CLOUDY    60  60 100 SW14G26   29.61F                  
PRESQUE ISLE   MOCLDY    59  57  93 S13       29.54F                  
FRENCHVILLE    CLOUDY    61  57  87 S12       29.45S                  
CARIBOU        FAIR      60  56  86 S12       29.52F                  
$$

NHZ002-005-008-009-011-012-014-220800-
NEW HAMPSHIRE
  
CITY           SKY/WX    TMP DP  RH WIND       PRES   REMARKS
ROCHESTER      CLOUDY    69  65  86 VRB6      29.78F                  
NASHUA         LGT RAIN  69  67  93 VRB5      29.83F                  
MANCHESTER     CLOUDY    71  65  81 SW12      29.80F                  
CONCORD        CLOUDY    70  65  84 SW7       29.80F                  
LACONIA        CLOUDY    69  65  86 SW14      29.78R                  
PLYMOUTH       MOCLDY    66  63  91 CALM      29.78S                  
BERLIN         MOCLDY    67  63  87 S3        29.72F                  
WHITEFIELD     FAIR      67  64  90 W6        29.75F                  
JAFFREY        LGT RAIN  67  66  97 SW12G23   29.86F                  
KEENE          MIX PCPN N/A N/A N/A SW14      29.85R                  
LEBANON        FAIR      68  63  84 S9        29.79F                  
MT WASHINGTON  FOG       50  50 100 W71G82      N/A  VSB 0            
$$

VTZ005-007-008-220800-
VERMONT
  
CITY           SKY/WX    TMP DP  RH WIND       PRES   REMARKS
ST JOHNSBURY     N/A     64  64 100 MISG      29.74R                  
MONTPELIER     LGT RAIN  68  62  81 W21G31    29.82R                  
BURLINGTON     FAIR      68  54  60 NW13G24   29.82R                  
$$

MAZ007-012-024-CTZ003-RIZ002-NYZ038-NYZ072-220800-
SOUTHERN NEW ENGLAND AND NY
  
CITY           SKY/WX    TMP DP  RH WIND       PRES   REMARKS
BOSTON         CLOUDY    73  64  73 SW26G36   29.84F                  
WORCESTER      RAIN      65  65 100 SW15      29.89F                  
NANTUCKET      FAIR      68  65  90 SW20G29   29.96F                  
PROVIDENCE     CLOUDY    71  66  84 SW14      29.91F                  
HARTFORD       LGT RAIN  70  66  87 SW10      29.89F                  
ALBANY         CLOUDY    71  62  73 W24G36    29.90R                  
NEW YORK CITY  MOCLDY    75  66  73 SW14G28   29.93S                  
$$

ANZ081-ANZ082-ANZ150-NHZ014-MEZ023>029-220800-
COASTAL MARINE OBSERVATIONS
  
STATION/POSITION TIME  TEMP    WIND        PRES    WAVE
                       AIR SEA DIR/SP/G            HT/PER
                 (UTC) (F)     (DEG/KT/KT) (MB)    (FT/S)
MOUNT DESERT ROC 0700   63     190/ 33/ 36 1008.1F
MATINICUS ROCK   0700   63     210/ 34/ 36 1008.1F
ISLE OF SHOALS   0700   69     220/ 26/ 28 1008.0F
JEFFREYS LEDGE   0636      63                N/A     7/10
$$

.............KEY..............
   WCI - WIND CHILL
   TC  - TEMPERATURE IN CELSIUS
   VSB - VISIBILITY IN MILES
   HX  - HEAT INDEX
   FAIR- INDICATES FEW OR NO CLOUDS BELOW 12,000 FT, WITH NO 
         SIGNIFICANT WEATHER AND/OR OBSTRUCTIONS TO VISIBILITY.